SES-17

Last updated on Thu Jul 03 2025 00:02:48 GMT+0000 (Coordinated Universal Time)

1 49332U 21095A 25183.55332883 -.00000264 00000+0 00000+0 0 9995 2 49332 0.0146 39.0285 0001054 59.3274 314.5679 1.00270124 14345
UTC large
Height (km)
Speed (km/s)
/
Latitude / Longitude
Inclination (degrees)
Orbital Period (minutes)
Azimuth
Elevation
Range (km)
Doppler Factor

Next 0 passes for location: London (51.5072 / 0.1276)

Sorry there are no passes over London.